Wind_Speed
3 3 2 1 1 2 3 3 4 4 4 5 5 5 5 6 5 5 6 7 7 6 5 3 3 1 1 3 5 6 8 9 10 12 14 18 21 23 26 28 30 32 33 35
3 2 2 1 0 1 2 2 3 3 3 3 4 4 4 4 4 4 5 6 5 4 4 3 2 3 4 5 7 8 10 12 12 13 16 19 21 23 25 27 30 32 35 37
3 3 3 3 2 1 2 2 2 2 2 2 3 3 3 4 5 4 4 5 5 5 4 4 4 5 6 8 9 10 12 14 16 17 19 21 24 26 28 30 32 34 36 37
4 4 4 4 4 3 3 3 2 2 3 3 3 4 4 5 6 6 5 5 5 6 6 6 7 8 9 11 12 14 15 16 18 21 23 25 27 28 29 31 32 34 36 39
5 5 6 6 6 6 6 5 5 4 5 5 4 5 6 6 7 7 7 7 7 8 8 9 10 11 12 14 16 17 18 19 21 23 25 28 29 30 32 33 34 35 36 38
7 7 7 7 7 8 8 7 7 6 6 6 6 6 7 7 8 9 9 9 9 10 11 12 13 15 16 18 19 21 22 23 24 26 27 29 30 32 34 35 35 35 35 35
8 8 7 8 8 8 8 8 8 8 8 9 9 9 9 10 9 10 12 12 12 13 14 16 17 19 20 22 23 25 26 27 28 28 29 30 32 34 36 36 35 35 35 37
9 9 10 9 10 10 10 11 11 11 12 12 12 12 12 12 12 12 14 14 15 16 18 19 21 22 24 26 27 28 29 30 30 30 32 33 34 35 35 35 34 35 37 38
12 12 13 13 13 13 13 13 14 14 14 15 15 15 15 15 15 15 16 17 18 19 20 21 23 25 26 28 29 30 31 31 32 33 34 35 35 35 35 35 35 36 37 38
15 15 16 15 16 16 16 17 17 17 17 17 18 18 18 17 17 17 19 20 21 23 23 25 26 27 28 29 30 31 32 33 34 34 35 35 35 36 36 37 37 37 37 38
18 18 19 18 19 19 20 20 20 20 20 19 19 19 19 19 20 20 22 23 24 25 26 28 29 30 30 31 32 34 34 35 35 35 35 35 35 36 37 38 38 38 38 38
21 21 21 22 22 22 22 22 22 22 22 22 22 21 21 21 22 23 25 26 27 28 29 30 31 31 32 33 34 34 35 36 36 37 36 36 36 37 36 37 37 38 37 38
23 23 23 23 24 24 24 24 23 23 24 24 24 24 24 24 25 26 27 29 30 30 31 32 32 32 33 34 35 35 35 36 37 37 36 36 36 36 36 36 36 36 35 35
25 24 24 24 25 26 25 25 25 25 25 25 26 26 27 28 28 29 30 31 31 32 32 33 33 34 34 35 35 35 36 36 37 37 37 37 36 36 35 34 33 33 33 32
28 28 27 26 26 27 27 27 27 27 27 28 28 28 29 30 31 31 32 33 33 33 34 35 35 35 36 36 36 36 36 36 37 37 36 37 36 34 34 32 31 30 30 31
30 30 30 30 29 30 30 30 29 29 30 30 31 31 32 32 33 34 34 34 34 35 35 36 36 37 37 37 37 37 37 37 36 36 36 36 34 33 32 31 30 30 30 29
31 32 32 32 32 32 32 32 32 32 32 32 33 33 33 34 34 35 35 36 36 36 37 37 38 38 38 38 38 38 38 37 36 36 35 35 33 32 31 31 30 30 30 29
32 33 34 34 34 34 34 34 34 34 34 34 34 34 35 35 36 36 37 37 37 38 38 38 39 39 40 39 38 39 38 37 36 35 34 34 33 32 31 30 29 29 29 28
33 34 34 35 36 37 37 37 37 37 37 37 37 37 37 37 38 38 38 38 38 38 38 39 39 40 40 40 39 39 38 37 35 35 34 33 32 31 31 29 28 28 27 27
34 35 36 36 37 38 38 38 38 38 38 39 39 39 39 39 39 39 39 39 39 39 39 39 40 40 40 39 39 39 38 36 35 35 34 33 33 32 31 30 29 28 27 27
34 35 35 36 37 38 38 38 38 38 38 39 40 40 40 40 40 40 40 40 40 40 40 40 40 40 39 39 39 38 37 36 35 35 34 33 32 32 31 30 29 28 28 28
35 36 36 37 37 37 38 38 38 38 39 39 40 40 40 40 40 40 40 40 40 41 40 40 40 40 40 39 38 37 37 36 35 34 33 33 32 32 31 30 29 29 29 28
36 37 38 38 38 38 38 38 39 39 39 39 39 39 40 40 40 40 40 40 40 40 40 40 39 39 39 38 38 37 37 36 35 34 33 33 32 32 31 30 29 29 29 28
38 39 39 39 39 38 38 38 39 39 39 39 39 39 39 40 40 40 40 39 39 39 39 39 39 38 38 37 37 37 36 35 34 34 33 32 32 31 30 30 29 29 29 28
40 39 39 40 39 39 39 38 38 38 38 38 38 38 39 39 39 39 39 39 39 38 38 38 38 37 37 36 36 36 36 35 34 33 33 32 31 30 29 29 29 28 28 28
41 41 40 40 39 39 39 39 39 38 38 38 38 39 39 39 39 39 38 38 38 38 38 37 37 36 36 35 35 35 34 34 33 32 32 31 30 29 29 29 28 28 27 27
42 42 40 39 39 39 39 39 39 39 39 39 39 39 39 39 39 39 38 38 37 37 36 36 35 35 35 34 34 34 33 32 32 31 30 30 29 28 28 28 27 27 27 27
Wind_Direction
164 159 149 119 52 40 42 44 44 45 43 48 48 47 49 48 48 42 37 33 41 54 61 69 58 25 306 286 279 273 269 264 259 256 255 257 260 259 258 261 262 263 265 265
197 192 188 179 180 29 26 23 22 18 31 42 40 35 30 25 23 19 16 19 25 35 35 31 17 338 309 295 294 292 285 282 278 274 271 271 270 267 267 269 271 270 272 271
206 215 215 228 238 279 321 339 351 358 6 15 25 17 12 3 356 354 352 359 3 3 356 350 344 333 314 300 295 291 285 284 286 286 285 281 279 277 275 276 277 276 275 273
214 221 234 245 255 274 295 301 315 322 323 326 336 350 349 343 341 346 344 343 344 341 333 325 323 320 316 309 300 295 289 287 288 290 291 290 287 285 283 283 282 280 278 277
239 239 241 253 263 271 278 284 286 290 293 300 308 323 335 337 334 337 338 336 332 330 328 322 318 316 314 311 308 302 298 294 293 294 293 294 293 291 289 287 284 281 281 279
253 257 257 258 266 274 276 282 283 286 288 295 298 304 314 321 322 323 321 319 319 319 319 318 316 314 314 314 312 310 304 298 297 299 299 299 296 295 293 291 287 285 283 282
256 260 262 265 272 277 282 282 284 289 289 292 295 296 299 305 307 310 311 312 312 312 312 312 312 312 313 313 312 309 305 300 298 299 299 298 297 297 297 294 291 289 287 286
259 263 265 267 272 276 279 281 285 288 288 290 292 293 294 296 298 301 304 307 309 310 310 309 309 310 310 311 310 308 306 303 299 299 300 299 298 297 297 294 293 292 291 290
263 266 266 268 269 272 274 279 284 287 289 289 291 290 290 291 291 294 297 300 303 306 309 309 309 309 309 310 309 307 306 304 301 299 299 298 297 296 295 294 293 293 293 291
265 267 267 269 270 271 274 276 279 282 283 285 288 288 287 287 288 291 294 297 300 303 306 307 307 308 309 310 310 309 307 306 304 301 300 299 296 295 293 293 293 293 293 292
264 265 266 268 271 272 274 275 277 278 279 281 282 284 285 287 288 289 292 295 298 300 302 305 306 307 307 308 309 309 309 308 307 304 301 300 299 297 296 295 294 294 293 292
266 266 267 270 272 273 273 275 276 277 278 279 279 280 282 285 289 291 292 294 297 299 301 303 304 305 305 306 307 309 309 309 308 306 304 301 300 300 299 299 299 298 296 294
269 269 271 273 274 275 275 276 277 279 279 279 278 278 280 283 288 291 293 295 297 298 301 302 303 303 304 305 306 308 308 309 309 308 306 304 303 302 301 302 302 302 301 299
271 272 273 275 275 275 276 276 277 278 279 278 278 278 280 282 286 290 293 295 296 297 299 301 302 302 303 303 305 306 307 308 309 309 307 306 305 304 303 303 304 305 306 305
272 272 273 274 276 277 277 278 278 278 278 277 278 280 282 283 285 287 290 292 294 296 298 299 300 301 301 302 303 304 306 307 308 308 308 308 306 305 305 305 306 306 307 306
273 273 273 274 276 277 277 278 279 279 278 278 279 280 282 284 285 287 288 291 293 295 297 298 299 300 300 300 300 302 304 305 305 306 307 309 308 307 307 307 306 306 307 307
274 273 275 276 276 276 276 277 278 279 279 279 280 281 282 284 286 287 289 290 292 293 294 296 297 298 299 298 299 300 301 302 303 304 306 308 308 307 307 307 306 307 307 306
276 275 275 276 277 277 277 277 277 278 278 279 280 281 283 284 286 287 289 291 293 294 294 295 296 297 297 297 297 299 300 300 301 302 304 305 306 306 306 307 306 308 308 307
279 277 277 277 278 279 279 279 279 278 277 278 279 281 282 284 286 288 289 290 292 294 294 294 295 296 296 295 296 297 298 298 298 299 301 302 304 305 306 305 305 306 307 307
282 279 278 278 279 280 280 280 280 279 278 277 278 280 282 283 285 287 288 290 291 292 294 294 295 296 296 295 295 296 297 297 296 297 298 299 300 301 302 303 303 304 305 305
283 282 281 280 280 281 281 281 281 280 279 279 279 279 281 283 285 286 288 290 291 292 293 295 295 296 295 295 295 295 296 296 295 295 295 296 296 297 298 299 300 301 302 302
285 284 282 281 281 281 281 281 281 282 282 281 281 281 281 283 285 287 288 290 291 291 293 295 296 296 295 294 294 294 295 294 294 294 294 294 295 295 296 296 297 298 300 300
287 286 285 283 283 281 280 280 281 282 282 282 282 282 282 283 285 288 289 290 290 291 292 294 296 297 297 295 294 294 294 293 293 293 293 293 293 293 293 293 294 295 297 297
288 287 287 285 284 282 281 280 281 282 283 283 282 282 283 284 286 288 290 291 292 292 293 295 296 296 296 295 295 294 293 293 292 293 292 292 292 291 291 291 291 292 293 295
289 289 288 286 284 283 281 281 281 281 282 282 283 283 284 285 287 288 289 290 291 292 293 294 295 295 295 294 295 294 294 293 292 292 292 291 291 290 290 290 289 290 291 292
288 288 287 286 285 283 282 281 281 280 281 282 283 284 285 286 287 289 290 290 291 292 293 293 294 294 294 294 295 295 294 294 292 292 291 290 290 289 290 290 289 289 289 290
287 286 285 284 283 283 282 281 280 280 280 281 282 283 285 286 287 288 289 290 291 292 292 293 293 293 293 293 294 294 295 295 293 292 291 290 290 290 290 290 289 288 288 289
Height
5640 5641 5641 5641 5640 5640 5639 5638 5637 5637 5635 5634 5633 5631 5630 5629 5627 5626 5624 5623 5621 5620 5620 5619 5619 5620 5620 5620 5620 5621 5622 5623 5624 5625 5626 5627 5628 5629 5630 5630 5631 5632 5632 5633
5641 5641 5641 5641 5641 5641 5640 5639 5638 5637 5637 5635 5634 5632 5631 5630 5628 5627 5625 5624 5623 5622 5621 5620 5620 5620 5620 5620 5620 5620 5620 5621 5621 5622 5622 5623 5623 5623 5623 5623 5623 5623 5622 5622
5642 5642 5642 5642 5642 5642 5641 5640 5639 5638 5638 5636 5635 5633 5632 5630 5629 5627 5626 5625 5624 5622 5621 5621 5620 5620 5620 5619 5619 5619 5618 5618 5618 5618 5618 5617 5616 5616 5615 5614 5614 5613 5612 5611
5642 5643 5643 5644 5642 5642 5641 5640 5639 5638 5637 5636 5635 5634 5632 5631 5629 5628 5626 5625 5624 5623 5622 5621 5620 5619 5619 5618 5617 5616 5615 5614 5613 5612 5611 5610 5608 5607 5606 5605 5604 5603 5601 5600
5641 5641 5642 5642 5641 5641 5640 5640 5639 5638 5637 5636 5635 5634 5632 5631 5629 5627 5626 5625 5623 5622 5621 5620 5619 5617 5616 5615 5613 5611 5610 5608 5607 5605 5604 5602 5600 5598 5597 5595 5593 5591 5589 5587
5640 5640 5641 5642 5640 5639 5640 5639 5638 5637 5636 5635 5634 5633 5633 5630 5628 5627 5625 5623 5622 5621 5619 5618 5616 5615 5613 5611 5608 5606 5604 5602 5600 5598 5596 5593 5592 5590 5587 5585 5582 5579 5577 5574
5639 5639 5639 5640 5639 5638 5639 5639 5636 5635 5635 5634 5633 5632 5631 5628 5627 5625 5623 5621 5620 5618 5617 5615 5613 5611 5609 5606 5603 5601 5598 5595 5593 5590 5588 5585 5583 5580 5577 5574 5571 5568 5566 5563
5637 5637 5640 5637 5637 5637 5636 5635 5634 5633 5632 5631 5630 5628 5627 5626 5624 5622 5620 5618 5617 5615 5613 5611 5608 5606 5604 5601 5598 5594 5591 5588 5585 5582 5579 5576 5572 5569 5566 5563 5560 5557 5554 5550
5636 5637 5635 5634 5634 5633 5632 5632 5631 5630 5629 5627 5626 5625 5623 5622 5621 5619 5617 5615 5613 5611 5609 5606 5603 5601 5598 5595 5591 5587 5584 5580 5577 5573 5570 5566 5562 5559 5555 5552 5550 5546 5542 5539
5631 5632 5631 5631 5630 5629 5628 5628 5627 5625 5624 5623 5622 5620 5619 5618 5616 5614 5613 5610 5608 5606 5603 5601 5598 5595 5591 5588 5584 5580 5576 5572 5568 5564 5560 5556 5552 5548 5545 5541 5538 5534 5530 5526
5626 5627 5626 5626 5625 5624 5624 5622 5621 5620 5619 5617 5616 5615 5614 5612 5611 5609 5607 5605 5602 5600 5597 5595 5591 5588 5584 5580 5576 5572 5567 5563 5559 5554 5550 5546 5542 5537 5534 5530 5525 5521 5517 5513
5622 5621 5621 5621 5619 5619 5618 5616 5615 5614 5613 5611 5610 5609 5608 5606 5605 5603 5601 5599 5596 5593 5591 5587 5584 5580 5576 5572 5568 5564 5559 5554 5550 5545 5540 5536 5532 5527 5522 5518 5513 5508 5504 5500
5615 5615 5615 5614 5613 5612 5611 5610 5608 5607 5606 5605 5604 5602 5601 5600 5598 5596 5594 5592 5589 5586 5583 5580 5576 5572 5568 5564 5560 5555 5551 5546 5541 5536 5531 5527 5522 5517 5513 5508 5503 5498 5493 5489
5608 5608 5608 5607 5606 5605 5603 5602 5601 5600 5598 5597 5596 5595 5594 5592 5591 5589 5587 5584 5581 5578 5575 5572 5568 5564 5559 5555 5551 5547 5542 5537 5532 5527 5522 5517 5512 5508 5503 5499 5494 5489 5484 5480
5601 5600 5600 5600 5599 5597 5596 5595 5594 5592 5591 5589 5588 5587 5585 5584 5582 5580 5578 5575 5573 5570 5566 5563 5559 5555 5550 5546 5542 5537 5533 5528 5523 5518 5513 5508 5503 5499 5494 5490 5486 5481 5477 5473
5592 5592 5591 5591 5590 5589 5588 5587 5585 5584 5582 5581 5579 5578 5576 5574 5573 5571 5568 5566 5563 5560 5557 5553 5549 5545 5541 5536 5532 5528 5524 5519 5514 5510 5505 5500 5495 5490 5486 5482 5478 5474 5470 5466
5584 5583 5583 5582 5581 5580 5579 5578 5576 5575 5573 5572 5570 5568 5567 5565 5563 5561 5558 5556 5553 5550 5547 5543 5539 5535 5531 5526 5522 5518 5514 5509 5505 5500 5496 5492 5487 5483 5479 5475 5471 5467 5463 5459
5575 5574 5573 5572 5571 5570 5569 5568 5567 5565 5564 5562 5560 5559 5557 5555 5553 5550 5548 5545 5542 5539 5536 5532 5528 5524 5520 5516 5512 5508 5504 5499 5495 5492 5488 5484 5480 5476 5472 5468 5464 5460 5456 5453
5565 5564 5563 5562 5561 5560 5559 5557 5556 5554 5553 5551 5550 5548 5546 5544 5542 5539 5537 5534 5531 5528 5525 5521 5517 5513 5509 5505 5501 5497 5493 5489 5486 5482 5479 5475 5472 5468 5465 5461 5458 5454 5450 5447
5555 5554 5553 5551 5550 5549 5547 5546 5544 5543 5541 5540 5538 5536 5534 5532 5530 5527 5525 5522 5519 5516 5513 5509 5505 5501 5497 5493 5490 5486 5483 5479 5476 5473 5470 5466 5463 5460 5457 5454 5450 5447 5443 5440
5545 5543 5541 5540 5539 5537 5535 5534 5532 5531 5529 5528 5526 5524 5522 5520 5518 5515 5513 5511 5507 5504 5500 5497 5493 5489 5485 5482 5478 5475 5472 5469 5466 5463 5460 5457 5454 5451 5449 5446 5443 5440 5436 5433
5534 5532 5530 5528 5527 5525 5523 5522 5520 5518 5517 5515 5514 5512 5510 5508 5506 5503 5501 5498 5495 5492 5488 5485 5481 5478 5474 5470 5467 5464 5461 5458 5455 5453 5450 5447 5445 5442 5440 5437 5434 5432 5429 5426
5522 5520 5518 5516 5515 5513 5511 5510 5508 5506 5505 5503 5501 5499 5498 5496 5493 5491 5489 5486 5482 5479 5476 5473 5470 5466 5463 5459 5456 5453 5450 5447 5445 5442 5439 5437 5435 5433 5430 5428 5426 5423 5421 5418
5510 5508 5506 5504 5502 5500 5499 5497 5496 5494 5492 5490 5489 5487 5485 5483 5481 5479 5476 5473 5470 5467 5464 5461 5458 5455 5451 5448 5445 5442 5439 5436 5434 5431 5429 5427 5425 5423 5421 5419 5417 5414 5412 5410
5498 5496 5493 5491 5489 5488 5486 5485 5483 5482 5480 5478 5476 5474 5472 5470 5469 5466 5463 5461 5458 5455 5452 5449 5446 5443 5440 5437 5434 5431 5428 5426 5423 5421 5418 5416 5414 5413 5411 5409 5407 5405 5403 5401
5486 5483 5481 5478 5476 5475 5473 5472 5471 5469 5468 5466 5464 5462 5460 5458 5456 5453 5451 5448 5446 5443 5440 5438 5435 5432 5429 5426 5424 5421 5418 5416 5413 5411 5409 5406 5404 5403 5401 5399 5398 5396 5394 5393
5472 5470 5467 5465 5463 5462 5460 5459 5458 5456 5455 5453 5452 5450 5447 5445 5443 5441 5438 5436 5434 5431 5429 5426 5424 5421 5418 5416 5413 5411 5408 5406 5404 5401 5399 5397 5395 5393 5392 5390 5388 5387 5385 5384